Location: Newark
(48.0000°N, 67.0000°E)
Time: 10:30:43
(UTC+00:00)

N. Korean satellite - Pass Details

Date: 25 January 2020
Orbit: 456 x 505 km, 97.2° (Epoch: 19 February)

Event Time Altitude Azimuth Distance (km) Brightness Sun altitude
Rises 13:11:42 0° 196° (SSW) 2,463 10.7 -8.8°
Reaches altitude 10° 13:14:01 10° 211° (SSW) 1,594 10.0 -9.1°
Maximum altitude 13:16:48 23° 266° (W) 1,023 9.3 -9.6°
Drops below altitude 10° 13:19:36 10° 320° (NW) 1,610 9.5 -10.0°
Sets 13:21:58 0° 336° (NNW) 2,495 10.3 -10.4°
